| time (UTC) | temp C | wind direction | speed KPH | gust KPH | rain 1hr cm | rain 24hr cm | rain mn cm | humidity % | barometer mb |
| 20260508044519 | 12 | 217 | 0.0 | 0.0 | 0.00 | 0.69 | 0.00 | 96 | 1013.7 |
| 20260508043025 | 12 | 217 | 0.0 | 0.0 | 0.00 | 0.79 | 0.00 | 96 | 1013.6 |
| 20260508041526 | 12 | 217 | 0.0 | 0.0 | 0.00 | 0.89 | 0.00 | 96 | 1013.7 |
| 20260508040025 | 12 | 217 | 0.0 | 0.0 | 0.00 | 0.97 | 0.00 | 96 | 1013.5 |
| 20260508034533 | 12 | 217 | 0.0 | 0.0 | 0.00 | 0.97 | 0.97 | 96 | 1013.2 |
| 20260508033004 | 12 | 217 | 0.0 | 0.0 | 0.00 | 0.97 | 0.97 | 96 | 1012.9 |
| 20260508031509 | 12 | 217 | 0.0 | 0.0 | 0.00 | 0.97 | 0.97 | 95 | 1012.9 |
| 20260508030008 | 12 | 217 | 0.0 | 0.0 | 0.00 | 0.97 | 0.97 | 95 | 1012.9 |
| 20260508024516 | 12 | 217 | 0.0 | 0.0 | 0.00 | 0.97 | 0.97 | 95 | 1012.8 |
| 20260508023005 | 12 | 217 | 0.0 | 0.0 | 0.00 | 0.97 | 0.97 | 95 | 1012.8 |
| 20260508021506 | 12 | 217 | 0.0 | 0.0 | 0.00 | 0.97 | 0.97 | 96 | 1012.5 |
| 20260508020008 | 12 | 217 | 0.0 | 0.0 | 0.00 | 0.97 | 0.97 | 96 | 1012.3 |
| 20260508014510 | 12 | 217 | 0.0 | 0.0 | 0.00 | 0.97 | 0.97 | 95 | 1012.4 |
| 20260508013013 | 12 | 217 | 0.0 | 0.0 | 0.00 | 0.97 | 0.97 | 95 | 1011.8 |
| 20260508011507 | 12 | 217 | 0.0 | 0.0 | 0.00 | 0.97 | 0.97 | 95 | 1011.5 |
| 20260508010009 | 12 | 217 | 0.0 | 0.0 | 0.00 | 0.97 | 0.97 | 95 | 1011.7 |
| 20260508004504 | 12 | 217 | 0.0 | 0.0 | 0.00 | 0.97 | 0.97 | 95 | 1011.8 |
| 20260508003012 | 12 | 217 | 0.0 | 0.0 | 0.00 | 0.97 | 0.97 | 94 | 1011.2 |
| 20260508001527 | 12 | 217 | 0.0 | 0.0 | 0.00 | 0.97 | 0.97 | 94 | 1011.4 |
| 20260508000009 | 12 | 217 | 0.0 | 0.0 | 0.00 | 0.97 | 0.97 | 94 | 1011.2 |
| 20260507234510 | 12 | 217 | 0.0 | 0.0 | 0.00 | 0.97 | 0.97 | 94 | 1010.7 |
| 20260507233009 | 12 | 217 | 0.0 | 0.0 | 0.00 | 0.97 | 0.97 | 94 | 1010.6 |
| 20260507231512 | 13 | 275 | 0.0 | 0.0 | 0.00 | 0.97 | 0.97 | 94 | 1010.2 |
| 20260507230014 | 13 | 292 | 0.0 | 0.0 | 0.00 | 0.97 | 0.97 | 94 | 1010.3 |
| 20260507224515 | 13 | 296 | 0.0 | 0.0 | 0.00 | 0.97 | 0.97 | 94 | 1010.0 |
| 20260507223014 | 13 | 276 | 0.0 | 0.0 | 0.00 | 0.97 | 0.97 | 94 | 1010.1 |
| 20260507221514 | 13 | 272 | 0.0 | 0.0 | 0.00 | 0.97 | 0.97 | 95 | 1009.9 |
| 20260507220016 | 12 | 266 | 0.0 | 0.0 | 0.00 | 0.97 | 0.97 | 95 | 1010.1 |
| 20260507214515 | 12 | 290 | 0.0 | 0.0 | 0.00 | 0.97 | 0.97 | 96 | 1010.2 |
| 20260507213026 | 12 | 289 | 0.0 | 0.0 | 0.00 | 0.97 | 0.97 | 96 | 1009.8 |
| 20260507211517 | 12 | 273 | 0.0 | 0.0 | 0.00 | 0.97 | 0.97 | 96 | 1009.7 |
| 20260507210012 | 12 | 232 | 0.0 | 0.0 | 0.00 | 0.97 | 0.97 | 96 | 1009.6 |
| 20260507204517 | 13 | 265 | 0.0 | 0.0 | 0.00 | 0.97 | 0.97 | 96 | 1009.3 |
| 20260507203024 | 13 | 203 | 0.0 | 0.0 | 0.00 | 0.97 | 0.97 | 96 | 1009.4 |
| 20260507201516 | 13 | 235 | 0.0 | 0.0 | 0.00 | 0.97 | 0.97 | 96 | 1009.4 |
| 20260507200017 | 13 | 302 | 0.0 | 0.0 | 0.00 | 0.97 | 0.97 | 97 | 1009.4 |
| 20260507194525 | 13 | 191 | 0.0 | 0.0 | 0.00 | 0.97 | 0.97 | 97 | 1009.3 |
| 20260507193020 | 13 | 309 | 0.0 | 0.0 | 0.00 | 0.97 | 0.97 | 97 | 1009.3 |
| 20260507191521 | 13 | 291 | 0.0 | 0.0 | 0.03 | 1.02 | 0.97 | 97 | 1009.4 |
| 20260507190017 | 13 | 288 | 0.0 | 0.0 | 0.03 | 1.17 | 0.97 | 97 | 1009.6 |
| 20260507184522 | 13 | 282 | 0.0 | 1.6 | 0.03 | 1.22 | 0.97 | 97 | 1009.0 |
| 20260507183018 | 14 | 276 | 0.0 | 0.0 | 0.05 | 1.32 | 0.97 | 97 | 1009.3 |
| 20260507181521 | 14 | 275 | 0.0 | 0.0 | 0.03 | 1.32 | 0.94 | 97 | 1009.0 |
| 20260507180022 | 15 | 243 | 0.0 | 0.0 | 0.03 | 1.32 | 0.94 | 97 | 1008.7 |
| 20260507174531 | 15 | 316 | 0.0 | 0.0 | 0.03 | 1.32 | 0.94 | 97 | 1009.1 |
| 20260507173045 | 16 | 329 | 0.0 | 0.0 | 0.00 | 1.30 | 0.91 | 96 | 1009.2 |
| 20260507171521 | 19 | 21 | 0.0 | 0.0 | 0.03 | 1.30 | 0.91 | 98 | 1008.2 |
| 20260507170005 | 20 | 21 | 0.0 | 0.0 | 0.05 | 1.30 | 0.91 | 98 | 1007.7 |
| 20260507164506 | 20 | 21 | 0.0 | 0.0 | 0.05 | 1.30 | 0.91 | 98 | 1008.1 |
| 20260507163009 | 19 | 21 | 0.0 | 0.0 | 0.05 | 1.30 | 0.91 | 98 | 1008.5 |
| 20260507161505 | 20 | 21 | 0.0 | 0.0 | 0.03 | 1.27 | 0.89 | 98 | 1009.2 |
| 20260507160016 | 20 | 21 | 0.0 | 0.0 | 0.00 | 1.24 | 0.86 | 98 | 1009.5 |
| 20260507154504 | 19 | 21 | 0.0 | 0.0 | 0.03 | 1.24 | 0.86 | 98 | 1009.3 |
| 20260507153008 | 19 | 45 | 0.0 | 0.0 | 0.05 | 1.24 | 0.86 | 98 | 1008.8 |
| 20260507151514 | 20 | 45 | 0.0 | 0.0 | 0.10 | 1.24 | 0.86 | 98 | 1009.0 |
| 20260507150012 | 19 | 53 | 0.0 | 0.0 | 0.13 | 1.24 | 0.86 | 98 | 1009.2 |
| 20260507144505 | 19 | 53 | 0.0 | 0.0 | 0.10 | 1.22 | 0.84 | 98 | 1009.3 |
| 20260507143007 | 19 | 53 | 0.0 | 0.0 | 0.10 | 1.19 | 0.81 | 98 | 1009.6 |
| 20260507141510 | 19 | 97 | 0.0 | 0.0 | 0.10 | 1.14 | 0.76 | 98 | 1009.4 |
| 20260507140020 | 19 | 102 | 0.0 | 0.0 | 0.10 | 1.12 | 0.74 | 98 | 1009.4 |
| 20260507134516 | 19 | 102 | 0.0 | 0.0 | 0.10 | 1.12 | 0.74 | 98 | 1009.8 |
| 20260507133018 | 18 | 102 | 0.0 | 0.0 | 0.08 | 1.09 | 0.71 | 98 | 1010.1 |
| 20260507131511 | 19 | 102 | 0.0 | 0.0 | 0.03 | 1.04 | 0.66 | 98 | 1010.0 |
| 20260507130015 | 18 | 102 | 0.0 | 0.0 | 0.00 | 1.02 | 0.64 | 98 | 1009.9 |
| 20260507124518 | 18 | 102 | 0.0 | 0.0 | 0.00 | 1.02 | 0.64 | 98 | 1010.0 |
| 20260507123033 | 18 | 102 | 0.0 | 0.0 | 0.00 | 1.02 | 0.64 | 98 | 1010.0 |
| 20260507121518 | 18 | 102 | 0.0 | 0.0 | 0.00 | 1.02 | 0.64 | 98 | 1009.8 |
| 20260507120007 | 18 | 102 | 0.0 | 0.0 | 0.00 | 1.02 | 0.64 | 98 | 1010.0 |
| 20260507114513 | 18 | 102 | 0.0 | 0.0 | 0.00 | 1.02 | 0.64 | 98 | 1009.9 |
| 20260507113017 | 18 | 101 | 0.0 | 0.0 | 0.03 | 1.02 | 0.64 | 98 | 1010.3 |
| 20260507111522 | 18 | 101 | 0.0 | 0.0 | 0.03 | 1.02 | 0.64 | 98 | 1010.2 |
| 20260507110033 | 18 | 101 | 0.0 | 0.0 | 0.03 | 1.02 | 0.64 | 98 | 1010.4 |
| 20260507104512 | 18 | 101 | 0.0 | 0.0 | 0.03 | 1.02 | 0.64 | 98 | 1009.9 |
| 20260507103002 | 18 | 101 | 0.0 | 0.0 | 0.03 | 0.99 | 0.61 | 98 | 1009.8 |
| 20260507101504 | 18 | 126 | 0.0 | 0.0 | 0.03 | 0.99 | 0.61 | 97 | 1009.9 |
| 20260507100006 | 17 | 126 | 0.0 | 0.0 | 0.03 | 0.99 | 0.61 | 98 | 1010.0 |
| 20260507094507 | 17 | 126 | 0.0 | 0.0 | 0.03 | 0.99 | 0.61 | 97 | 1009.9 |
| 20260507093006 | 17 | 126 | 0.0 | 0.0 | 0.03 | 0.97 | 0.58 | 97 | 1010.1 |
| 20260507091505 | 17 | 126 | 0.0 | 0.0 | 0.03 | 0.97 | 0.58 | 97 | 1009.9 |
| 20260507090010 | 17 | 126 | 0.0 | 0.0 | 0.03 | 0.97 | 0.58 | 97 | 1010.1 |
| 20260507084507 | 17 | 126 | 0.0 | 0.0 | 0.05 | 0.97 | 0.58 | 97 | 1010.1 |
| 20260507083008 | 17 | 126 | 0.0 | 0.0 | 0.13 | 0.94 | 0.56 | 97 | 1010.5 |
| 20260507081508 | 17 | 126 | 0.0 | 0.0 | 0.13 | 0.94 | 0.56 | 97 | 1010.8 |
| 20260507080008 | 17 | 129 | 0.0 | 0.0 | 0.13 | 0.94 | 0.56 | 97 | 1010.9 |
| 20260507074504 | 17 | 129 | 0.0 | 0.0 | 0.10 | 0.91 | 0.53 | 97 | 1010.2 |
| 20260507073004 | 17 | 137 | 0.0 | 0.0 | 0.00 | 0.81 | 0.43 | 97 | 1011.3 |
| 20260507071513 | 17 | 137 | 0.0 | 0.0 | 0.00 | 0.81 | 0.43 | 97 | 1011.4 |
| 20260507070022 | 17 | 137 | 0.0 | 0.0 | 0.00 | 0.81 | 0.43 | 96 | 1011.5 |
| 20260507064515 | 18 | 137 | 0.0 | 0.0 | 0.00 | 0.81 | 0.43 | 96 | 1011.5 |
| 20260507063007 | 18 | 137 | 0.0 | 0.0 | 0.00 | 0.81 | 0.43 | 96 | 1011.6 |
| 20260507061507 | 18 | 137 | 0.0 | 0.0 | 0.00 | 0.81 | 0.43 | 96 | 1012.0 |
| 20260507060012 | 18 | 137 | 0.0 | 0.0 | 0.05 | 0.81 | 0.43 | 96 | 1012.0 |
| 20260507054517 | 18 | 137 | 0.0 | 0.0 | 0.15 | 0.81 | 0.43 | 95 | 1012.4 |
| 20260507053020 | 18 | 137 | 0.0 | 0.0 | 0.25 | 0.81 | 0.43 | 95 | 1012.0 |
| 20260507051506 | 18 | 137 | 0.0 | 0.0 | 0.36 | 0.81 | 0.43 | 95 | 1011.0 |
| 20260507050020 | 18 | 138 | 0.0 | 0.0 | 0.38 | 0.76 | 0.38 | 94 | 1011.9 |